[[{"header":{"parameterUnit":"m.s-1","parameterCategory":2,"la1":30.2991,"la2":30.254,"lo1":-89.0895,"lo2":-89.0444,"dy":0.0017,"dx":0.0017,"nx":28,"ny":28,"refTime":"2023-09-27T09:00:00:Z","depth":"0","parameterNumber":2,"parameterNumberName":"U-component_of_CURRENTS"},"data":[0,0,0,0,0,0,0,0,0,0,0,0,0,0,0,0,0,0,0,0,0,0,0,0,0,0,0,0,0,0,0,0,0,0,0,0,0,0,0,0,0,0,0,0,0,0,0,0,0,0,0,0,0,0,0,0,0,0,-0.1985,-0.1985,0,-0.2002,-0.2002,-0.2002,-0.2004,-0.2004,-0.2004,-0.2004,-0.1957,-0.1956,-0.1955,0,0,0,0,0,0,0,0,0,0,0,0,0,-0.1917,-0.1918,-0.1985,-0.1985,-0.1985,-0.2002,-0.2002,-0.2002,-0.2004,-0.2004,-0.2004,-0.2004,-0.1957,-0.1956,-0.1955,0,0,0,0,0,0,0,0,0,0,0,0,0,-0.194,-0.1919,-0.1985,-0.1989,-0.199,-0.2002,-0.2002,-0.2002,-0.2004,-0.2004,-0.2004,-0.2003,-0.1958,-0.1956,-0.1954,-0.1945,0,0,-0.1949,-0.1948,0,0,0,0,0,0,0,0,-0.1939,-0.1943,-0.1988,-0.1989,-0.199,-0.2002,-0.1961,-0.198,-0.2004,-0.1997,-0.2004,-0.2003,-0.1967,-0.1964,-0.1967,-0.1943,-0.1941,-0.1949,-0.1948,-0.1947,-0.1946,0,0,0,0,0,0,0,-0.1937,-0.1942,-0.199,-0.1989,-0.199,-0.1978,-0.1981,-0.1964,-0.198,-0.1998,-0.1998,-0.2002,-0.1967,-0.1969,-0.1966,-0.194,-0.1949,-0.1947,-0.1946,-0.1945,-0.188,-0.1879,0,0,0,0,0,0,-0.194,-0.1941,-0.199,-0.1991,-0.1965,-0.1979,-0.1983,-0.1997,-0.1982,-0.198,-0.2002,-0.2002,-0.1972,-0.1968,-0.1964,-0.1943,-0.1947,-0.1945,-0.1944,-0.188,-0.188,-0.1879,0,0,0,0,0,0,-0.1939,-0.1945,-0.1989,-0.1966,-0.1971,-0.1981,-0.1996,-0.1997,-0.2,-0.1986,-0.1983,-0.2004,-0.1971,-0.1966,-0.1943,-0.1942,-0.1944,-0.1943,-0.1881,-0.188,-0.1879,-0.1907,0,0,0,0,0,0,-0.1937,-0.1944,-0.1951,-0.1967,-0.1973,-0.1991,-0.1996,-0.1998,-0.2003,-0.2003,-0.1986,-0.1982,-0.1971,-0.1945,-0.1941,-0.1939,-0.1941,-0.1882,-0.1881,-0.188,-0.1907,-0.1907,-0.1907,0,0,0,0,0,-0.1935,-0.1942,-0.1952,-0.1958,-0.1984,-0.1991,-0.1993,-0.1998,-0.2003,-0.2001,-0.1988,-0.1983,-0.1934,-0.1943,-0.1938,-0.1936,-0.1883,-0.1881,-0.188,-0.1907,-0.1907,-0.1907,0,0,0,0,0,0,-0.1905,-0.1944,-0.1955,-0.1971,-0.198,-0.1992,-0.1992,-0.1999,-0.199,-0.199,-0.1976,-0.197,-0.1946,-0.1934,-0.1945,-0.1911,-0.1907,-0.1904,-0.1929,-0.1929,-0.1929,-0.1943,-0.194,0,0,0,0,0,-0.1907,-0.1927,-0.1952,-0.1961,-0.1969,-0.1982,-0.1986,-0.1993,-0.199,-0.1987,-0.1974,-0.1956,-0.1936,-0.1928,-0.1905,-0.1891,-0.1914,-0.1883,-0.1884,-0.1884,-0.189,-0.1916,-0.1921,-0.1874,-0.1874,-0.1874,0,0,-0.1895,-0.1919,-0.1929,-0.1956,-0.1965,-0.1972,-0.1983,-0.1991,-0.1991,-0.1981,-0.1968,-0.1953,-0.193,-0.1911,-0.19,-0.1902,-0.1914,-0.1882,-0.1883,-0.1888,-0.1915,-0.192,-0.1925,-0.1873,-0.1873,-0.1873,0,0,-0.1881,-0.1907,-0.1921,-0.1932,-0.1953,-0.1963,-0.1966,-0.198,-0.1982,-0.1971,-0.1961,-0.1952,-0.1918,-0.1911,-0.1901,-0.1888,-0.191,-0.1873,-0.1891,-0.1917,-0.1922,-0.1927,-0.1993,-0.2003,-0.1878,-0.1878,-0.1878,0,-0.1868,-0.1896,-0.192,-0.1932,-0.1945,-0.1959,-0.1969,-0.1968,-0.1968,-0.1978,-0.1965,-0.1944,-0.1922,-0.1917,-0.1906,-0.1891,-0.1921,-0.1897,-0.1921,-0.1926,-0.193,-0.1996,-0.2007,-0.1879,-0.1879,-0.1879,-0.1879,0,-0.1864,-0.1888,-0.1894,-0.1923,-0.193,-0.1943,-0.1953,-0.1958,-0.1964,-0.1971,-0.197,-0.1947,-0.1942,-0.1928,-0.191,-0.1924,-0.1943,-0.1918,-0.193,-0.1937,-0.2006,-0.2017,-0.1881,-0.1881,-0.188,-0.188,0,0,-0.1839,-0.1888,-0.1891,-0.191,-0.1936,-0.1941,-0.1948,-0.197,-0.1988,-0.1978,-0.2008,-0.1966,-0.1972,-0.196,-0.1944,-0.196,-0.2018,-0.1951,-0.1952,-0.2033,-0.2111,-0.2098,-0.2109,-0.1999,-0.2,-0.2001,-0.216,0,-0.1836,-0.1868,-0.1892,-0.1908,-0.1928,-0.1951,-0.1954,-0.197,-0.199,-0.2015,-0.2014,-0.2019,-0.1978,-0.1984,-0.1991,-0.2009,-0.2042,-0.1979,-0.2077,-0.2081,-0.2081,-0.2119,-0.1963,-0.2088,-0.2171,-0.2172,-0.2174,0,-0.1827,-0.1857,-0.1885,-0.1927,-0.1936,-0.1939,-0.1979,-0.1983,-0.2022,-0.2044,-0.2066,-0.207,-0.2092,-0.2052,-0.2106,-0.2069,-0.209,-0.2107,-0.2113,-0.2096,-0.2086,-0.2085,-0.2105,-0.2044,-0.2191,-0.2189,-0.2188,0,-0.1805,-0.1851,-0.1879,-0.1891,-0.1931,-0.1946,-0.1959,-0.1993,-0.2025,-0.2071,-0.2122,-0.2133,-0.2164,-0.2177,-0.2198,-0.216,-0.2278,-0.2234,-0.2254,-0.2256,-0.2139,-0.2128,-0.212,-0.2281,-0.228,-0.228,-0.2279,0,-0.1802,-0.1818,-0.1871,-0.1883,-0.1908,-0.1931,-0.1969,-0.1989,-0.2053,-0.2112,-0.2129,-0.2194,-0.2193,-0.2253,-0.2251,-0.2302,-0.2325,-0.2278,-0.2291,-0.2146,-0.2134,-0.2087,-0.2087,-0.2286,-0.2284,-0.2283,-0.2282,0,-0.1765,-0.1808,-0.1835,-0.1884,-0.1899,-0.1907,-0.1978,-0.2023,-0.2073,-0.2162,-0.2186,-0.2266,-0.2342,-0.2363,-0.2416,-0.2386,-0.2373,-0.2433,-0.2285,-0.2276,-0.2207,-0.2216,-0.2263,-0.2204,-0.2486,-0.2487,-0.2487,0,-0.175,-0.1761,-0.1819,-0.1856,-0.188,-0.1916,-0.1961,-0.2018,-0.2083,-0.2212,-0.2268,-0.2368,-0.243,-0.2522,-0.2476,-0.25,-0.2432,-0.2377,-0.2256,-0.2202,-0.2222,-0.2208,-0.2151,-0.2135,-0.2133,-0.2131,-0.2129,0,-0.1711,-0.1731,-0.1766,-0.1827,-0.1882,-0.1943,-0.2011,-0.2065,-0.2155,-0.2235,-0.2356,-0.2414,-0.2493,-0.2429,-0.2441,-0.2422,-0.2271,-0.2339,-0.2298,-0.1968,-0.1936,-0.1883,-0.2075,-0.2111,-0.2113,-0.2114,-0.2115,-0.2116,-0.1675,-0.1691,-0.1741,-0.1786,-0.1865,-0.194,-0.1944,-0.2049,-0.212,-0.2171,-0.2311,-0.2325,-0.2299,-0.2282,-0.2277,-0.2141,-0.221,-0.2025,-0.2057,-0.2062,-0.1935,-0.2119,-0.2151,-0.2153,-0.2154,-0.2156,-0.2157,0,-0.1625,-0.1652,-0.1702,-0.1753,-0.1795,-0.1854,-0.1952,-0.1933,-0.1967,-0.2046,-0.2085,-0.2085,-0.1999,-0.1988,-0.1903,-0.1835,-0.1759,-0.1794,-0.169,-0.1658,-0.1815,-0.1722,-0.1641,-0.1641,-0.1641,-0.1641,-0.1641,-0.1641,-0.1606,-0.162,-0.1636,-0.1648,-0.1683,-0.1668,-0.1688,-0.1695,-0.1712,-0.1712,-0.1717,-0.1789,-0.1815,-0.1836,-0.1701,-0.1619,-0.1556,-0.1521,-0.1587,-0.1634,-0.1655,-0.1676,-0.1584,-0.1476,-0.1476,-0.1295,-0.1294,-0.1293]},{"header":{"parameterUnit":"m.s-1","parameterCategory":2,"la1":30.2991,"la2":30.254,"lo1":-89.0895,"lo2":-89.0444,"dy":0.0017,"dx":0.0017,"nx":28,"ny":28,"refTime":"2023-09-27T09:00:00:Z","depth":"0","parameterNumber":3,"parameterNumberName":"V-component_of_CURRENTS"},"data":[0,0,0,0,0,0,0,0,0,0,0,0,0,0,0,0,0,0,0,0,0,0,0,0,0,0,0,0,0,0,0,0,0,0,0,0,0,0,0,0,0,0,0,0,0,0,0,0,0,0,0,0,0,0,0,0,0,0,-0.0203,-0.0202,0,-0.0148,-0.0147,-0.0147,-0.0105,-0.0105,-0.0104,-0.0104,-0.0041,-0.004,-0.0039,0,0,0,0,0,0,0,0,0,0,0,0,0,-0.0274,-0.0273,-0.0203,-0.0202,-0.0202,-0.0148,-0.0147,-0.0147,-0.0105,-0.0105,-0.0104,-0.0104,-0.0042,-0.004,-0.0039,0,0,0,0,0,0,0,0,0,0,0,0,0,-0.0234,-0.0273,-0.0203,-0.0174,-0.0171,-0.0148,-0.0147,-0.0147,-0.0105,-0.0104,-0.0104,-0.0103,-0.0042,-0.004,-0.0038,-0.0039,0,0,-0.0032,-0.0032,0,0,0,0,0,0,0,0,-0.0236,-0.0231,-0.0179,-0.0176,-0.0172,-0.0132,-0.0149,-0.011,-0.0105,-0.013,-0.0104,-0.0103,-0.0071,-0.0067,-0.0059,-0.0036,-0.0034,-0.0032,-0.0031,-0.003,-0.003,0,0,0,0,0,0,0,-0.0239,-0.0234,-0.0182,-0.0178,-0.0174,-0.0164,-0.0158,-0.0142,-0.0105,-0.0128,-0.0125,-0.0118,-0.0069,-0.006,-0.0057,-0.0033,-0.0032,-0.0031,-0.0029,-0.0029,-0.0026,-0.0027,0,0,0,0,0,0,-0.0245,-0.0236,-0.0183,-0.018,-0.0203,-0.0164,-0.0157,-0.0146,-0.0105,-0.0099,-0.0119,-0.0117,-0.0064,-0.0059,-0.0054,-0.007,-0.003,-0.0029,-0.0027,-0.0025,-0.0026,-0.0028,0,0,0,0,0,0,-0.0247,-0.0241,-0.0186,-0.0207,-0.0199,-0.0163,-0.0152,-0.0145,-0.0136,-0.0098,-0.0091,-0.0117,-0.0063,-0.0057,-0.0049,-0.0067,-0.0028,-0.0026,-0.0024,-0.0025,-0.0027,-0.0092,0,0,0,0,0,0,-0.0249,-0.0242,-0.0241,-0.0207,-0.0198,-0.0182,-0.0152,-0.0145,-0.0133,-0.013,-0.0094,-0.0087,-0.0062,-0.0052,-0.0047,-0.0064,-0.0024,-0.0022,-0.0025,-0.0026,-0.0088,-0.0095,-0.0101,0,0,0,0,0,-0.0252,-0.0257,-0.0241,-0.0235,-0.0196,-0.0182,-0.0178,-0.015,-0.0134,-0.0138,-0.0115,-0.0089,-0.0061,-0.0052,-0.0045,-0.0062,-0.0021,-0.0024,-0.0026,-0.0085,-0.0094,-0.0101,0,0,0,0,0,0,-0.029,-0.0252,-0.0234,-0.0227,-0.0209,-0.0175,-0.0177,-0.0156,-0.014,-0.0137,-0.0099,-0.0092,-0.0093,-0.0071,-0.0061,-0.0068,-0.0039,-0.004,-0.0085,-0.0093,-0.01,-0.0109,-0.0023,0,0,0,0,0,-0.0297,-0.029,-0.0255,-0.0252,-0.0244,-0.0211,-0.0203,-0.0184,-0.0163,-0.0155,-0.0129,-0.0108,-0.0099,-0.009,-0.0077,-0.0078,-0.0061,-0.0087,-0.0093,-0.0099,-0.0104,-0.0104,-0.0111,-0.0035,-0.0035,-0.0035,0,0,-0.0311,-0.029,-0.0286,-0.026,-0.0243,-0.0246,-0.0205,-0.0199,-0.0202,-0.0152,-0.0152,-0.013,-0.0106,-0.011,-0.0108,-0.0092,-0.0111,-0.0102,-0.0107,-0.0109,-0.0107,-0.0115,-0.0121,-0.0037,-0.0037,-0.0037,0,0,-0.0349,-0.0318,-0.0331,-0.0318,-0.0297,-0.0275,-0.0276,-0.0245,-0.0232,-0.0226,-0.0199,-0.0188,-0.0164,-0.0154,-0.0146,-0.0181,-0.0148,-0.0178,-0.0216,-0.0217,-0.0223,-0.0228,-0.0214,-0.0217,-0.018,-0.018,-0.018,0,-0.0371,-0.0374,-0.0335,-0.0346,-0.0342,-0.0294,-0.0311,-0.0294,-0.0265,-0.0263,-0.0236,-0.0212,-0.0187,-0.0199,-0.021,-0.0196,-0.0187,-0.0187,-0.0225,-0.023,-0.0234,-0.0218,-0.0221,-0.0183,-0.0183,-0.0182,-0.0182,0,-0.0416,-0.0421,-0.0429,-0.0423,-0.0415,-0.0422,-0.0389,-0.0381,-0.0353,-0.0334,-0.0329,-0.029,-0.0274,-0.0269,-0.0247,-0.027,-0.0251,-0.0235,-0.0205,-0.0246,-0.0226,-0.0228,-0.0188,-0.0187,-0.0186,-0.0185,0,0,-0.0461,-0.0463,-0.0465,-0.0478,-0.0455,-0.0454,-0.0458,-0.0451,-0.0454,-0.042,-0.0426,-0.0403,-0.0369,-0.0358,-0.0328,-0.0325,-0.0341,-0.0297,-0.0295,-0.0282,-0.0336,-0.0265,-0.026,-0.0335,-0.0336,-0.0337,-0.0309,0,-0.0512,-0.0553,-0.0534,-0.0571,-0.0588,-0.0548,-0.0551,-0.0535,-0.051,-0.0501,-0.0462,-0.0454,-0.0407,-0.0396,-0.0387,-0.0358,-0.0349,-0.0349,-0.0298,-0.0296,-0.0229,-0.0261,-0.0215,-0.0182,-0.0311,-0.0311,-0.0311,0,-0.0562,-0.0583,-0.063,-0.064,-0.0641,-0.0651,-0.0642,-0.0638,-0.0613,-0.0593,-0.0572,-0.0534,-0.0522,-0.0471,-0.0436,-0.044,-0.0393,-0.0362,-0.036,-0.0273,-0.0229,-0.0163,-0.018,-0.0073,-0.0314,-0.0314,-0.0313,0,-0.0612,-0.0646,-0.0687,-0.0691,-0.0694,-0.0704,-0.0696,-0.0672,-0.0678,-0.0653,-0.0656,-0.0617,-0.0599,-0.0552,-0.0465,-0.0462,-0.0416,-0.0403,-0.0292,-0.0286,-0.0225,-0.0212,-0.0131,-0.0376,-0.0376,-0.0376,-0.0376,0,-0.067,-0.0701,-0.0715,-0.0737,-0.0775,-0.0751,-0.0779,-0.0758,-0.0749,-0.0775,-0.0706,-0.0711,-0.062,-0.0571,-0.0496,-0.0392,-0.0436,-0.0303,-0.0279,-0.0245,-0.0234,-0.0118,-0.0071,-0.0375,-0.0375,-0.0376,-0.0376,0,-0.0719,-0.0731,-0.0776,-0.0794,-0.0801,-0.0822,-0.0837,-0.086,-0.0833,-0.0866,-0.0866,-0.0799,-0.0727,-0.0615,-0.0525,-0.0427,-0.0262,-0.0285,-0.0237,-0.0207,-0.0004,0.0037,0.0145,0.0197,-0.0177,-0.0175,-0.0174,0,-0.0748,-0.0778,-0.0815,-0.0847,-0.0861,-0.0891,-0.0916,-0.0903,-0.0936,-0.0925,-0.0955,-0.0877,-0.0825,-0.0633,-0.0434,-0.0267,-0.0194,-0.0124,-0.0105,0.0015,0.0077,0.0102,0.0139,-0.0053,-0.005,-0.0048,-0.0047,0,-0.0799,-0.0807,-0.0844,-0.0907,-0.0951,-0.1001,-0.104,-0.108,-0.1077,-0.1093,-0.1093,-0.1044,-0.081,-0.0572,-0.0303,-0.0205,-0.003,-0.0077,0.0023,0.0165,0.0219,0.0279,-0.0069,-0.0029,-0.0031,-0.0032,-0.0033,-0.0034,-0.0827,-0.0863,-0.0909,-0.0966,-0.1025,-0.1102,-0.1147,-0.119,-0.1236,-0.1232,-0.1182,-0.1056,-0.0674,-0.0277,-0.0148,0.0177,0.0123,0.0253,0.0287,0.0297,0.0369,0.0076,0.0162,0.0161,0.0161,0.016,0.016,0,-0.0862,-0.0903,-0.0965,-0.1045,-0.1115,-0.1131,-0.1224,-0.1262,-0.1314,-0.1244,-0.1195,-0.0803,-0.0426,-0.0075,0.0395,0.0544,0.0553,0.0589,0.0624,0.0638,0.036,0.039,0.0559,0.0559,0.0558,0.0558,0.0558,0.0558,-0.0888,-0.0949,-0.0979,-0.1097,-0.1154,-0.1245,-0.1293,-0.1338,-0.1303,-0.1159,-0.0937,-0.0762,-0.026,0.0469,0.0866,0.0874,0.0954,0.0945,0.0978,0.0787,0.0757,0.0729,0.0769,0.1013,0.1014,0.1244,0.1247,0.1248]}],[{"header":{"parameterUnit":"m.s-1","parameterCategory":2,"la1":30.2991,"la2":30.254,"lo1":-89.0895,"lo2":-89.0444,"dy":0.0017,"dx":0.0017,"nx":28,"ny":28,"refTime":"2023-09-27T09:00:00:Z","depth":"2","parameterNumber":2,"parameterNumberName":"U-component_of_CURRENTS"},"data":[0,0,0,0,0,0,0,0,0,0,0,0,0,0,0,0,0,0,0,0,0,0,0,0,0,0,0,0,0,0,0,0,0,0,0,0,0,0,0,0,0,0,0,0,0,0,0,0,0,0,0,0,0,0,0,0,0,0,-0.1899,-0.1899,0,-0.1878,-0.1877,-0.1877,-0.1897,-0.1898,-0.1899,-0.19,-0.1882,-0.1881,-0.1879,0,0,0,0,0,0,0,0,0,0,0,0,0,-0.1851,-0.1852,-0.1899,-0.1899,-0.1899,-0.1878,-0.1877,-0.1877,-0.1897,-0.1898,-0.1899,-0.19,-0.1882,-0.1881,-0.1879,0,0,0,0,0,0,0,0,0,0,0,0,0,-0.1853,-0.1852,-0.1899,-0.1908,-0.1908,-0.1878,-0.1877,-0.1877,-0.1897,-0.1898,-0.19,-0.1901,-0.1883,-0.1881,-0.1879,-0.1837,0,0,-0.1873,-0.1872,0,0,0,0,0,0,0,0,-0.1853,-0.1855,-0.1906,-0.1907,-0.1908,-0.1893,-0.1854,-0.1864,-0.1896,-0.1899,-0.19,-0.1902,-0.1886,-0.1884,-0.1874,-0.1836,-0.1836,-0.1873,-0.1871,-0.187,-0.187,0,0,0,0,0,0,0,-0.1853,-0.1855,-0.1889,-0.1906,-0.1907,-0.1876,-0.1879,-0.1855,-0.1884,-0.1899,-0.1901,-0.1901,-0.1886,-0.1876,-0.1874,-0.1835,-0.1873,-0.1871,-0.1869,-0.1869,-0.1764,-0.1762,0,0,0,0,0,0,-0.1863,-0.1856,-0.189,-0.1888,-0.1885,-0.1876,-0.1879,-0.1895,-0.1884,-0.1884,-0.1899,-0.1902,-0.1879,-0.1876,-0.1873,-0.1851,-0.187,-0.1868,-0.1867,-0.1765,-0.1764,-0.1762,0,0,0,0,0,0,-0.1863,-0.1867,-0.1891,-0.1872,-0.1873,-0.1876,-0.1893,-0.1894,-0.1897,-0.1884,-0.1885,-0.1904,-0.188,-0.1876,-0.185,-0.185,-0.1868,-0.1866,-0.1767,-0.1765,-0.1763,-0.1789,0,0,0,0,0,0,-0.1862,-0.1867,-0.1875,-0.1873,-0.1874,-0.1858,-0.1892,-0.1892,-0.1894,-0.1897,-0.1888,-0.1887,-0.1881,-0.1853,-0.1848,-0.1847,-0.1864,-0.1769,-0.1766,-0.1764,-0.179,-0.1787,-0.1785,0,0,0,0,0,-0.186,-0.1855,-0.1876,-0.188,-0.1889,-0.1856,-0.1852,-0.1859,-0.1893,-0.1872,-0.1877,-0.1888,-0.1831,-0.185,-0.1844,-0.1843,-0.1771,-0.1767,-0.1764,-0.1791,-0.1788,-0.1786,0,0,0,0,0,0,-0.1824,-0.1857,-0.188,-0.1884,-0.187,-0.186,-0.1843,-0.1862,-0.185,-0.1867,-0.1868,-0.1864,-0.1836,-0.1826,-0.1848,-0.1799,-0.1802,-0.1797,-0.1824,-0.1822,-0.182,-0.183,-0.1862,0,0,0,0,0,-0.1825,-0.1842,-0.185,-0.185,-0.1845,-0.1851,-0.1843,-0.1854,-0.1847,-0.1846,-0.1842,-0.1834,-0.1812,-0.181,-0.1778,-0.1758,-0.1791,-0.1749,-0.1747,-0.1746,-0.1747,-0.1787,-0.179,-0.1751,-0.1751,-0.1751,0,0,-0.1813,-0.1832,-0.1842,-0.1845,-0.184,-0.181,-0.1849,-0.1837,-0.1837,-0.1844,-0.1834,-0.1819,-0.1799,-0.1771,-0.1759,-0.1772,-0.1779,-0.1742,-0.1741,-0.1742,-0.1784,-0.1789,-0.1793,-0.1748,-0.1749,-0.1749,0,0,-0.1776,-0.1811,-0.1805,-0.1789,-0.1788,-0.1786,-0.1787,-0.1785,-0.1812,-0.1797,-0.1803,-0.1796,-0.1759,-0.1754,-0.1747,-0.1712,-0.1756,-0.1695,-0.1711,-0.175,-0.1755,-0.176,-0.1841,-0.1853,-0.1708,-0.1708,-0.1708,0,-0.1763,-0.1761,-0.1788,-0.176,-0.1754,-0.1776,-0.1752,-0.1761,-0.1757,-0.1779,-0.1794,-0.1769,-0.1755,-0.1745,-0.173,-0.1713,-0.1753,-0.1732,-0.1753,-0.1758,-0.1762,-0.1844,-0.1857,-0.1709,-0.1709,-0.1709,-0.1709,0,-0.1705,-0.1705,-0.1688,-0.168,-0.1671,-0.1648,-0.1672,-0.1691,-0.1734,-0.1736,-0.1752,-0.1749,-0.175,-0.1733,-0.1722,-0.1735,-0.1761,-0.1742,-0.1774,-0.1769,-0.1854,-0.1867,-0.171,-0.171,-0.171,-0.1709,0,0,-0.169,-0.1661,-0.1662,-0.1663,-0.1639,-0.1638,-0.165,-0.1665,-0.1714,-0.1706,-0.1768,-0.1719,-0.1745,-0.1738,-0.1743,-0.1765,-0.1839,-0.1768,-0.1769,-0.1875,-0.1965,-0.1899,-0.1908,-0.183,-0.1831,-0.1832,-0.2026,0,-0.1644,-0.1608,-0.1602,-0.1572,-0.1559,-0.1592,-0.1615,-0.1641,-0.1682,-0.1737,-0.1762,-0.1781,-0.1743,-0.1779,-0.1793,-0.1828,-0.1867,-0.1791,-0.1929,-0.1934,-0.1898,-0.1917,-0.1705,-0.1851,-0.2039,-0.2041,-0.2043,0,-0.1601,-0.159,-0.1557,-0.1586,-0.1588,-0.1575,-0.1665,-0.1683,-0.1744,-0.179,-0.1814,-0.1833,-0.1873,-0.1853,-0.1932,-0.1889,-0.1924,-0.1945,-0.1954,-0.1888,-0.189,-0.1874,-0.1867,-0.2065,-0.2063,-0.2061,-0.206,0,-0.1615,-0.158,-0.1573,-0.156,-0.1567,-0.1605,-0.1635,-0.1695,-0.1751,-0.1824,-0.1883,-0.1913,-0.199,-0.2009,-0.2047,-0.2007,-0.2149,-0.2112,-0.209,-0.209,-0.1931,-0.1911,-0.2163,-0.2163,-0.2162,-0.2162,-0.2161,0,-0.1582,-0.1584,-0.1585,-0.1572,-0.1607,-0.1629,-0.1695,-0.1741,-0.1829,-0.1886,-0.1915,-0.2001,-0.2027,-0.2105,-0.2107,-0.2154,-0.2212,-0.2103,-0.2125,-0.1934,-0.1913,-0.2097,-0.2087,-0.2169,-0.2168,-0.2166,-0.2165,0,-0.1585,-0.1575,-0.1572,-0.1592,-0.1601,-0.1639,-0.1713,-0.1785,-0.1858,-0.196,-0.199,-0.2099,-0.2195,-0.2225,-0.23,-0.2253,-0.2285,-0.2281,-0.2073,-0.2062,-0.2195,-0.2184,-0.2295,-0.2294,-0.2293,-0.2293,-0.2292,0,-0.1576,-0.1567,-0.1583,-0.1599,-0.1599,-0.1652,-0.1714,-0.1787,-0.1858,-0.2015,-0.2082,-0.2206,-0.2267,-0.2369,-0.2303,-0.2313,-0.2339,-0.2118,-0.1965,-0.2194,-0.2205,-0.2194,-0.2184,-0.1801,-0.1796,-0.1793,-0.179,0,-0.1551,-0.1568,-0.1576,-0.1589,-0.1635,-0.1673,-0.1756,-0.1795,-0.1909,-0.2008,-0.2151,-0.2209,-0.2304,-0.22,-0.2179,-0.2138,-0.2086,-0.2042,-0.2355,-0.1775,-0.1736,-0.1744,-0.1749,-0.1757,-0.176,-0.1763,-0.1764,-0.1766,-0.1551,-0.1561,-0.1567,-0.1582,-0.1626,-0.1647,-0.1652,-0.1759,-0.1828,-0.1911,-0.2068,-0.2093,-0.2102,-0.1959,-0.1887,-0.1807,-0.1949,-0.1816,-0.1824,-0.1837,-0.172,-0.1677,-0.1671,-0.1673,-0.1676,-0.1678,-0.168,0,-0.1523,-0.1539,-0.1557,-0.155,-0.1553,-0.159,-0.1649,-0.1634,-0.1671,-0.1778,-0.1856,-0.1705,-0.1618,-0.1638,-0.1459,-0.1424,-0.1373,-0.1354,-0.127,-0.1305,-0.1335,-0.1187,-0.1,-0.0998,-0.0996,-0.0995,0,0,-0.1515,-0.1509,-0.1509,-0.1451,-0.145,-0.1408,-0.1405,-0.1407,-0.1433,-0.1432,-0.1442,-0.1548,-0.1591,-0.1298,-0.1227,-0.1088,-0.1181,-0.1027,-0.1571,-0.1507,-0.1535,-0.1602,-0.1414,0,0,0,0,0]},{"header":{"parameterUnit":"m.s-1","parameterCategory":2,"la1":30.2991,"la2":30.254,"lo1":-89.0895,"lo2":-89.0444,"dy":0.0017,"dx":0.0017,"nx":28,"ny":28,"refTime":"2023-09-27T09:00:00:Z","depth":"2","parameterNumber":3,"parameterNumberName":"V-component_of_CURRENTS"},"data":[0,0,0,0,0,0,0,0,0,0,0,0,0,0,0,0,0,0,0,0,0,0,0,0,0,0,0,0,0,0,0,0,0,0,0,0,0,0,0,0,0,0,0,0,0,0,0,0,0,0,0,0,0,0,0,0,0,0,-0.0075,-0.0074,0,0.0003,0.0004,0.0005,0.0034,0.0034,0.0034,0.0033,0.0083,0.0084,0.0086,0,0,0,0,0,0,0,0,0,0,0,0,0,-0.0164,-0.0162,-0.0075,-0.0074,-0.0073,0.0003,0.0004,0.0005,0.0034,0.0034,0.0034,0.0033,0.0082,0.0084,0.0086,0,0,0,0,0,0,0,0,0,0,0,0,0,-0.0109,-0.0162,-0.0075,-0.005,-0.0046,0.0003,0.0004,0.0005,0.0034,0.0034,0.0033,0.0033,0.0081,0.0084,0.0086,0.0107,0,0,0.0093,0.0094,0,0,0,0,0,0,0,0,-0.0113,-0.0106,-0.0054,-0.0051,-0.0048,0.0009,-0.0009,0.0038,0.0034,0.0003,0.0033,0.0033,0.0055,0.006,0.0076,0.011,0.0112,0.0093,0.0095,0.0096,0.0096,0,0,0,0,0,0,0,-0.0116,-0.0109,-0.0044,-0.0053,-0.0049,-0.0029,-0.0023,0.0,0.003,0.0006,0.0008,0.0017,0.0057,0.0073,0.0077,0.0113,0.0093,0.0095,0.0097,0.0097,0.0143,0.0143,0,0,0,0,0,0,-0.0127,-0.0113,-0.0047,-0.0042,-0.0082,-0.0028,-0.002,-0.0009,0.003,0.0036,0.0018,0.0018,0.007,0.0074,0.0079,0.0075,0.0096,0.0098,0.0099,0.0143,0.0143,0.0143,0,0,0,0,0,0,-0.0129,-0.0122,-0.005,-0.0076,-0.0065,-0.0026,-0.0014,-0.0008,0.0001,0.0039,0.0045,0.0018,0.007,0.0075,0.0091,0.0078,0.0099,0.0101,0.0144,0.0143,0.0143,0.0088,0,0,0,0,0,0,-0.0132,-0.0123,-0.0122,-0.0076,-0.0064,-0.0022,-0.0014,-0.0006,0.0008,0.0009,0.0042,0.0047,0.007,0.0088,0.0093,0.0082,0.0103,0.0144,0.0143,0.0143,0.009,0.0086,0.0083,0,0,0,0,0,-0.0136,-0.0132,-0.0122,-0.0114,-0.0063,-0.0021,-0.0013,0.0013,0.0008,0.0017,0.0031,0.0045,0.009,0.0089,0.0096,0.0085,0.0144,0.0144,0.0143,0.0092,0.0087,0.0083,0,0,0,0,0,0,-0.0171,-0.0127,-0.0116,-0.01,-0.0064,-0.0017,-0.0008,0.0006,0.0026,0.0018,0.0047,0.0053,0.0064,0.0084,0.0082,0.0098,0.0118,0.0119,0.0077,0.0072,0.0068,0.0077,0.0105,0,0,0,0,0,-0.0178,-0.0166,-0.0118,-0.0108,-0.0091,-0.0054,-0.0037,-0.0019,0.0006,0.0015,0.0036,0.0054,0.007,0.0077,0.0102,0.0109,0.0119,0.0107,0.0103,0.0099,0.0111,0.0103,0.0099,0.0142,0.0142,0.0142,0,0,-0.0192,-0.0166,-0.016,-0.0115,-0.0089,-0.006,-0.0045,-0.0023,-0.0014,0.0016,0.0026,0.0045,0.0071,0.0082,0.0087,0.0093,0.009,0.0099,0.0095,0.011,0.0102,0.0098,0.0094,0.0142,0.0142,0.0142,0,0,-0.0212,-0.0187,-0.0183,-0.015,-0.0111,-0.0077,-0.0075,-0.0032,-0.003,-0.0014,0.0005,0.0017,0.0043,0.0062,0.0072,0.0063,0.0073,0.0064,0.0047,0.0038,0.0034,0.0031,0.0024,0.002,0.0057,0.0057,0.0057,0,-0.0232,-0.021,-0.0176,-0.0156,-0.013,-0.0088,-0.007,-0.0056,-0.0018,-0.0008,-0.002,0.0019,0.0035,0.0051,0.0045,0.0054,0.0051,0.0058,0.0032,0.0029,0.0027,0.002,0.0017,0.0055,0.0055,0.0055,0.0055,0,-0.0235,-0.0219,-0.0212,-0.0169,-0.0139,-0.0114,-0.0079,-0.0082,-0.0077,-0.0032,-0.0024,-0.0014,0.0004,0.001,0.0023,0.0019,0.0021,0.0028,0.0039,0.0019,0.0013,0.0011,0.0051,0.0052,0.0053,0.0053,0,0,-0.028,-0.0225,-0.0226,-0.0212,-0.0141,-0.0123,-0.0121,-0.0079,-0.0089,-0.0056,-0.0064,-0.0031,-0.0019,-0.0007,-0.0004,-0.0002,-0.0032,0.0001,0.0001,-0.0014,-0.0057,0.0044,0.0051,-0.004,-0.004,-0.004,-0.0061,0,-0.0293,-0.0276,-0.0231,-0.0208,-0.0192,-0.0154,-0.0159,-0.0122,-0.0099,-0.0097,-0.0069,-0.0058,-0.0029,-0.0056,-0.0047,-0.0046,-0.0038,-0.0027,-0.0027,-0.0027,0.0059,0.0053,0.0045,0.0035,-0.0063,-0.0063,-0.0063,0,-0.031,-0.0293,-0.0279,-0.025,-0.0241,-0.0227,-0.0227,-0.0216,-0.018,-0.0176,-0.0144,-0.0109,-0.0107,-0.0098,-0.009,-0.0092,-0.0071,-0.0055,-0.0056,0.0064,0.0072,0.0044,0.0036,-0.0066,-0.0066,-0.0066,-0.0066,0,-0.0371,-0.033,-0.0326,-0.0305,-0.0263,-0.0284,-0.0271,-0.0237,-0.0243,-0.0222,-0.0226,-0.0188,-0.0229,-0.0186,-0.0134,-0.0136,-0.0112,-0.0121,0.0005,0.0011,0.0022,0.0032,-0.0089,-0.0089,-0.0089,-0.0089,-0.0089,0,-0.0392,-0.04,-0.0367,-0.0363,-0.0386,-0.034,-0.0363,-0.0362,-0.0355,-0.035,-0.0274,-0.0305,-0.0256,-0.022,-0.0159,-0.0076,-0.0138,0.0014,0.002,0.0004,0.0012,-0.0055,-0.0051,-0.009,-0.009,-0.009,-0.0089,0,-0.0462,-0.0433,-0.044,-0.0417,-0.0414,-0.044,-0.043,-0.0458,-0.0437,-0.0459,-0.0462,-0.0423,-0.0385,-0.0274,-0.0226,-0.0126,-0.0041,0.0019,0.001,0.0019,0.0086,0.0087,0.0118,0.0121,0.0124,0.0127,0.0129,0,-0.0494,-0.0504,-0.0495,-0.0506,-0.0498,-0.0518,-0.0547,-0.0524,-0.0546,-0.0532,-0.0565,-0.0512,-0.0472,-0.0311,-0.0139,0.0024,0.0017,0.0138,0.016,0.0109,0.011,0.0107,0.0104,0.0125,0.0127,0.0128,0.013,0,-0.0556,-0.0566,-0.0572,-0.059,-0.0617,-0.0635,-0.0667,-0.0685,-0.0676,-0.0697,-0.0719,-0.0671,-0.0486,-0.0301,-0.002,0.0074,0.0115,0.0179,0.0097,0.0107,0.0123,0.0123,0.0118,0.0144,0.0142,0.0141,0.014,0.014,-0.0622,-0.0651,-0.0657,-0.0682,-0.0708,-0.074,-0.0771,-0.0805,-0.0841,-0.0844,-0.081,-0.0708,-0.0498,-0.0103,0.0074,0.0255,0.0235,0.0289,0.0279,0.0269,0.0307,0.0332,0.0396,0.0396,0.0396,0.0396,0.0396,0,-0.068,-0.0711,-0.0739,-0.0764,-0.0802,-0.0798,-0.0847,-0.087,-0.093,-0.089,-0.0875,-0.0611,-0.0331,-0.0099,0.021,0.0393,0.0341,0.0414,0.0312,0.0299,0.0288,0.0322,0.0417,0.0417,0.0418,0.0418,0,0,-0.0718,-0.076,-0.0773,-0.0835,-0.0858,-0.092,-0.0949,-0.0979,-0.0952,-0.0918,-0.0818,-0.0628,-0.0314,-0.0087,0.0128,0.0283,0.0233,0.0288,0.0258,0.0099,0.0084,0.0209,0.0249,0,0,0,0,0]}],[{"header":{"parameterUnit":"m.s-1","parameterCategory":2,"la1":30.2991,"la2":30.254,"lo1":-89.0895,"lo2":-89.0444,"dy":0.0017,"dx":0.0017,"nx":28,"ny":28,"refTime":"2023-09-27T09:00:00:Z","depth":"4","parameterNumber":2,"parameterNumberName":"U-component_of_CURRENTS"},"data":[0,0,0,0,0,0,0,0,0,0,0,0,0,0,0,0,0,0,0,0,0,0,0,0,0,0,0,0,0,0,0,0,0,0,0,0,0,0,0,0,0,0,0,0,0,0,0,0,0,0,0,0,0,0,0,0,0,0,-0.0681,-0.0682,0,-0.0753,-0.0753,-0.0754,-0.0796,-0.0796,-0.0796,-0.0797,-0.0878,-0.088,-0.0882,0,0,0,0,0,0,0,0,0,0,0,0,0,-0.0599,-0.06,-0.0681,-0.0682,-0.0683,-0.0752,-0.0753,-0.0754,-0.0795,-0.0796,-0.0796,-0.0797,-0.0878,-0.088,-0.0882,0,0,0,0,0,0,0,0,0,0,0,0,0,-0.0646,-0.06,-0.0681,-0.0714,-0.0718,-0.0752,-0.0753,-0.0754,-0.0795,-0.0796,-0.0797,-0.0797,-0.0877,-0.0879,-0.0882,-0.0887,0,0,-0.089,-0.0891,0,0,0,0,0,0,0,0,-0.0643,-0.0649,-0.0708,-0.0712,-0.0716,-0.0768,-0.0754,-0.08,-0.0795,-0.0763,-0.0797,-0.0797,-0.0843,-0.0849,-0.0857,-0.089,-0.0894,-0.0891,-0.0892,-0.0893,-0.0894,0,0,0,0,0,0,0,-0.064,-0.0646,-0.0707,-0.0709,-0.0714,-0.0732,-0.0739,-0.0763,-0.0797,-0.0766,-0.077,-0.0782,-0.0845,-0.0854,-0.086,-0.0895,-0.089,-0.0893,-0.0895,-0.0896,-0.0986,-0.0987,0,0,0,0,0,0,-0.0635,-0.0643,-0.0705,-0.0709,-0.0683,-0.0733,-0.0741,-0.0749,-0.0797,-0.0806,-0.0781,-0.0784,-0.085,-0.0856,-0.0863,-0.0939,-0.0893,-0.0896,-0.0897,-0.0986,-0.0987,-0.0987,0,0,0,0,0,0,-0.0633,-0.0639,-0.0702,-0.068,-0.0689,-0.0734,-0.0743,-0.075,-0.0774,-0.0809,-0.0817,-0.08,-0.085,-0.0859,-0.0901,-0.0939,-0.0897,-0.09,-0.0985,-0.0986,-0.0987,-0.1047,0,0,0,0,0,0,-0.063,-0.0638,-0.0651,-0.0679,-0.0691,-0.0741,-0.0742,-0.0751,-0.0781,-0.0785,-0.0828,-0.0835,-0.0851,-0.0897,-0.0904,-0.0942,-0.0902,-0.0984,-0.0985,-0.0987,-0.1044,-0.105,-0.1056,0,0,0,0,0,-0.0626,-0.0644,-0.0651,-0.0659,-0.0703,-0.0742,-0.075,-0.0781,-0.0781,-0.0802,-0.0827,-0.0834,-0.0911,-0.09,-0.0908,-0.0948,-0.0983,-0.0985,-0.0986,-0.1042,-0.1049,-0.1055,0,0,0,0,0,0,-0.0622,-0.0651,-0.0659,-0.0686,-0.0719,-0.0751,-0.0774,-0.0786,-0.082,-0.0828,-0.0846,-0.0856,-0.091,-0.0912,-0.0898,-0.0975,-0.0948,-0.0951,-0.0987,-0.0994,-0.1,-0.0995,-0.0904,0,0,0,0,0,-0.0624,-0.0645,-0.0673,-0.0702,-0.0713,-0.0741,-0.0762,-0.0786,-0.0816,-0.0831,-0.0863,-0.089,-0.092,-0.0943,-0.0971,-0.1011,-0.0994,-0.1039,-0.1044,-0.1049,-0.1049,-0.1023,-0.1026,-0.0993,-0.0993,-0.0993,0,0,-0.0633,-0.0652,-0.0666,-0.0703,-0.0726,-0.0753,-0.0756,-0.0797,-0.0823,-0.0835,-0.0886,-0.0916,-0.0934,-0.0987,-0.101,-0.0996,-0.1058,-0.1052,-0.1056,-0.1053,-0.1025,-0.1028,-0.1031,-0.0995,-0.0994,-0.0994,0,0,-0.0654,-0.0673,-0.069,-0.0716,-0.0757,-0.0778,-0.079,-0.0832,-0.0853,-0.0906,-0.0918,-0.0957,-0.1016,-0.1031,-0.1044,-0.1089,-0.1089,-0.1115,-0.1145,-0.112,-0.1123,-0.1124,-0.1142,-0.1145,-0.1117,-0.1117,-0.1117,0,-0.0661,-0.0688,-0.0706,-0.0728,-0.0754,-0.0786,-0.0813,-0.0838,-0.0896,-0.0912,-0.0933,-0.1003,-0.1029,-0.1063,-0.11,-0.1103,-0.1107,-0.1122,-0.1127,-0.1128,-0.1129,-0.1147,-0.1149,-0.112,-0.112,-0.112,-0.1119,0,-0.0686,-0.0714,-0.0729,-0.0764,-0.0794,-0.0831,-0.0861,-0.0895,-0.093,-0.096,-0.1015,-0.1049,-0.1085,-0.1112,-0.1135,-0.1163,-0.1173,-0.1138,-0.111,-0.1136,-0.1153,-0.1155,-0.1125,-0.1124,-0.1123,-0.1122,0,0,-0.068,-0.0735,-0.0741,-0.0758,-0.0817,-0.0839,-0.0881,-0.0924,-0.0943,-0.1008,-0.1038,-0.1107,-0.113,-0.1144,-0.1168,-0.1172,-0.1208,-0.118,-0.1178,-0.12,-0.1198,-0.1174,-0.1173,-0.1181,-0.1181,-0.118,-0.1222,0,-0.0695,-0.0737,-0.0765,-0.0812,-0.0832,-0.0871,-0.0898,-0.0942,-0.0992,-0.1034,-0.1064,-0.1111,-0.1136,-0.1171,-0.1178,-0.1199,-0.1209,-0.1203,-0.1168,-0.1168,-0.1143,-0.1172,-0.1179,-0.1223,-0.1223,-0.1223,-0.1223,0,-0.0698,-0.073,-0.0772,-0.0819,-0.0828,-0.0863,-0.0911,-0.0942,-0.0997,-0.1037,-0.1085,-0.1121,-0.1164,-0.1167,-0.1193,-0.1196,-0.1211,-0.1218,-0.1218,-0.117,-0.1144,-0.1181,-0.1224,-0.1224,-0.1224,-0.1224,-0.1224,0,-0.0667,-0.0727,-0.0761,-0.0781,-0.0839,-0.0861,-0.0894,-0.0948,-0.0974,-0.1043,-0.1085,-0.1122,-0.1164,-0.1161,-0.1211,-0.1205,-0.1236,-0.1203,-0.1191,-0.1191,-0.1173,-0.117,-0.1201,-0.1201,-0.1201,-0.1201,-0.1201,0,-0.0659,-0.0685,-0.0749,-0.0768,-0.079,-0.0841,-0.0877,-0.091,-0.0976,-0.1021,-0.1083,-0.1125,-0.1168,-0.1203,-0.1213,-0.1221,-0.1223,-0.1206,-0.1191,-0.1204,-0.1204,-0.1176,-0.1173,-0.1202,-0.1202,-0.1202,-0.1201,0,-0.0617,-0.0662,-0.0697,-0.0763,-0.0775,-0.0791,-0.086,-0.089,-0.0957,-0.102,-0.1047,-0.1141,-0.1193,-0.1229,-0.1253,-0.123,-0.1224,-0.1223,-0.1279,-0.1266,-0.1201,-0.12,-0.1198,-0.1198,-0.1197,-0.1197,-0.1196,0,-0.0599,-0.0615,-0.0677,-0.0688,-0.0722,-0.076,-0.0784,-0.0863,-0.0911,-0.1024,-0.1052,-0.1145,-0.1203,-0.1218,-0.1248,-0.1252,-0.1241,-0.1236,-0.1185,-0.1211,-0.1197,-0.1197,-0.1197,-0.1195,-0.1195,-0.1195,-0.1195,0,-0.0563,-0.059,-0.0618,-0.0646,-0.0677,-0.0719,-0.0777,-0.0806,-0.0909,-0.0968,-0.1053,-0.1102,-0.1174,-0.1204,-0.1235,-0.1225,-0.1228,-0.1229,-0.123,-0.1181,-0.1207,-0.1194,-0.1194,-0.1193,-0.1193,-0.1193,-0.1193,0,-0.053,-0.0538,-0.0577,-0.0599,-0.0644,-0.07,-0.0725,-0.08,-0.0853,-0.0982,-0.1005,-0.11,-0.1174,-0.1192,-0.1202,-0.1212,-0.1189,-0.1146,-0.115,-0.1152,-0.1117,-0.1141,-0.11,0,0,0,0,0,-0.0501,-0.0513,-0.0528,-0.0573,-0.0629,-0.0667,-0.0735,-0.0773,-0.0866,-0.091,-0.0964,-0.1026,-0.1087,-0.1123,-0.1123,-0.1174,-0.1185,-0.117,-0.1135,-0.1182,-0.1184,-0.1147,0,0,0,0,0,0,-0.0477,-0.0495,-0.0516,-0.0568,-0.0602,-0.0672,-0.0727,-0.0781,-0.081,-0.0893,-0.0924,-0.0982,-0.104,-0.1086,-0.1111,-0.1122,-0.1085,-0.1217,-0.1215,-0.118,-0.1182,-0.1184,-0.1147,0,0,0,0,0]},{"header":{"parameterUnit":"m.s-1","parameterCategory":2,"la1":30.2991,"la2":30.254,"lo1":-89.0895,"lo2":-89.0444,"dy":0.0017,"dx":0.0017,"nx":28,"ny":28,"refTime":"2023-09-27T09:00:00:Z","depth":"4","parameterNumber":3,"parameterNumberName":"V-component_of_CURRENTS"},"data":[0,0,0,0,0,0,0,0,0,0,0,0,0,0,0,0,0,0,0,0,0,0,0,0,0,0,0,0,0,0,0,0,0,0,0,0,0,0,0,0,0,0,0,0,0,0,0,0,0,0,0,0,0,0,0,0,0,0,-0.0132,-0.0132,0,-0.0075,-0.0074,-0.0074,-0.0065,-0.0065,-0.0066,-0.0066,-0.0022,-0.0021,-0.0019,0,0,0,0,0,0,0,0,0,0,0,0,0,-0.0174,-0.0174,-0.0132,-0.0132,-0.0131,-0.0075,-0.0074,-0.0073,-0.0065,-0.0065,-0.0066,-0.0066,-0.0023,-0.0021,-0.0019,0,0,0,0,0,0,0,0,0,0,0,0,0,-0.014,-0.0174,-0.0133,-0.012,-0.0118,-0.0075,-0.0074,-0.0073,-0.0064,-0.0065,-0.0066,-0.0067,-0.0023,-0.0021,-0.0019,0.0012,0,0,-0.0011,-0.001,0,0,0,0,0,0,0,0,-0.0142,-0.0139,-0.0122,-0.0121,-0.0119,-0.0078,-0.0073,-0.0045,-0.0064,-0.0085,-0.0066,-0.0067,-0.0041,-0.0038,-0.0025,0.0014,0.0016,-0.0011,-0.0009,-0.0008,-0.0007,0,0,0,0,0,0,0,-0.0145,-0.0141,-0.011,-0.0122,-0.0119,-0.0096,-0.0093,-0.0067,-0.006,-0.0083,-0.0082,-0.0076,-0.0041,-0.0027,-0.0024,0.0017,-0.0011,-0.0009,-0.0007,-0.0006,0.0054,0.0054,0,0,0,0,0,0,-0.0154,-0.0143,-0.0111,-0.0108,-0.0133,-0.0095,-0.0091,-0.009,-0.006,-0.0056,-0.0075,-0.0075,-0.0031,-0.0027,-0.0022,-0.0004,-0.0008,-0.0006,-0.0004,0.0054,0.0054,0.0054,0,0,0,0,0,0,-0.0155,-0.0152,-0.0114,-0.0124,-0.0118,-0.0094,-0.0092,-0.0089,-0.0076,-0.0053,-0.005,-0.0067,-0.0031,-0.0026,-0.0005,-0.0002,-0.0005,-0.0003,0.0053,0.0054,0.0054,0.0044,0,0,0,0,0,0,-0.0157,-0.0153,-0.0156,-0.0125,-0.0117,-0.009,-0.0091,-0.0087,-0.0071,-0.0071,-0.0045,-0.0042,-0.0032,-0.0009,-0.0003,0.0001,-0.0001,0.0053,0.0053,0.0054,0.0045,0.0044,0.0044,0,0,0,0,0,-0.0159,-0.0148,-0.0157,-0.0153,-0.0122,-0.009,-0.0083,-0.0069,-0.007,-0.0061,-0.0049,-0.0042,-0.0004,-0.0007,0.0,0.0006,0.0053,0.0053,0.0054,0.0045,0.0044,0.0044,0,0,0,0,0,0,-0.0161,-0.0146,-0.0154,-0.014,-0.0122,-0.0088,-0.0074,-0.0067,-0.0048,-0.0051,-0.0034,-0.003,-0.0014,-0.0,-0.0004,0.0022,0.0024,0.0025,0.0014,0.0014,0.0014,0.0018,0.0001,0,0,0,0,0,-0.0167,-0.0162,-0.0142,-0.0133,-0.0123,-0.0101,-0.0086,-0.0078,-0.0057,-0.005,-0.0036,-0.0021,-0.0005,0.0006,0.0021,0.0045,0.0074,0.005,0.005,0.0049,0.0057,0.0106,0.0111,0.0055,0.0055,0.0055,0,0,-0.0164,-0.0157,-0.0153,-0.0135,-0.0118,-0.0107,-0.0094,-0.007,-0.0068,-0.0047,-0.0038,-0.002,-0.0001,0.0016,0.0025,0.0029,0.008,0.005,0.0049,0.0057,0.0107,0.0113,0.0118,0.0055,0.0055,0.0055,0,0,-0.0153,-0.0151,-0.0144,-0.0133,-0.0115,-0.0104,-0.0099,-0.0072,-0.0067,-0.0052,-0.0042,-0.0022,0.0004,0.0018,0.0029,0.0039,0.0074,0.0043,0.0051,0.0099,0.0104,0.011,0.0153,0.0162,0.0047,0.0047,0.0047,0,-0.0154,-0.0152,-0.0134,-0.0127,-0.0125,-0.0106,-0.0103,-0.0088,-0.0063,-0.0057,-0.0055,-0.0014,0.0003,0.0028,0.0033,0.0039,0.0076,0.0051,0.01,0.0105,0.0111,0.0154,0.0165,0.0046,0.0047,0.0047,0.0047,0,-0.0139,-0.0145,-0.0134,-0.0134,-0.0125,-0.0115,-0.0102,-0.0095,-0.009,-0.0076,-0.0052,-0.0022,0.0004,0.0012,0.003,0.0074,0.009,0.0091,0.0102,0.0116,0.0161,0.0172,0.0046,0.0046,0.0046,0.0046,0,0,-0.0129,-0.0128,-0.0129,-0.0144,-0.0134,-0.0126,-0.0124,-0.0114,-0.011,-0.0083,-0.0064,-0.0033,-0.0006,0.0009,0.0036,0.0084,0.0154,0.0112,0.0114,0.0157,0.027,0.0223,0.0231,0.0172,0.0174,0.0176,0.0285,0,-0.013,-0.0135,-0.0132,-0.0148,-0.0152,-0.0148,-0.0149,-0.0138,-0.0122,-0.0095,-0.0055,-0.0025,-0.0011,0.0014,0.0063,0.013,0.0183,0.0125,0.0248,0.0251,0.021,0.0242,0.0181,0.0293,0.0296,0.0298,0.0299,0,-0.0122,-0.0133,-0.0147,-0.0175,-0.0175,-0.0181,-0.0187,-0.0182,-0.0141,-0.0121,-0.0078,-0.0037,0.0032,0.0048,0.0169,0.0137,0.0208,0.026,0.0266,0.0235,0.0225,0.0277,0.0319,0.0318,0.0316,0.0315,0.0314,0,-0.0132,-0.0149,-0.017,-0.0175,-0.0191,-0.0202,-0.0209,-0.0189,-0.0181,-0.0124,-0.0098,-0.0023,0.0026,0.0121,0.0216,0.0211,0.0357,0.0356,0.038,0.0377,0.0391,0.0384,0.0455,0.0455,0.0455,0.0455,0.0454,0,-0.0139,-0.0158,-0.0179,-0.0191,-0.0219,-0.022,-0.0231,-0.0224,-0.019,-0.0174,-0.0107,-0.0072,0.0053,0.0142,0.0232,0.0331,0.0366,0.0393,0.0406,0.0383,0.0374,0.0399,0.0391,0.0459,0.0458,0.0457,0.0456,0,-0.0144,-0.0156,-0.0184,-0.0213,-0.0224,-0.0241,-0.0254,-0.0252,-0.0222,-0.0192,-0.0168,-0.0082,0.0021,0.0135,0.0292,0.0338,0.0444,0.0473,0.0442,0.045,0.0434,0.0425,0.0521,0.052,0.0519,0.0519,0.0519,0,-0.0145,-0.0158,-0.0199,-0.022,-0.0236,-0.026,-0.0271,-0.0263,-0.0258,-0.021,-0.0192,-0.009,-0.0027,0.0152,0.027,0.0433,0.0446,0.0505,0.0473,0.044,0.0444,0.0435,0.0426,0.0518,0.0518,0.0517,0.0517,0,-0.0152,-0.0165,-0.0189,-0.023,-0.0256,-0.0288,-0.0307,-0.0307,-0.0292,-0.0256,-0.0211,-0.012,-0.0007,0.0128,0.0254,0.0367,0.0467,0.05,0.0502,0.0472,0.0438,0.044,0.0432,0.0515,0.0516,0.0516,0.0516,0,-0.0152,-0.0173,-0.0204,-0.0243,-0.0282,-0.0322,-0.0327,-0.0327,-0.0321,-0.0273,-0.0258,-0.0139,-0.0057,0.0095,0.0209,0.0314,0.0338,0.0366,0.0375,0.0379,0.0291,0.0224,0.0259,0,0,0,0,0,-0.0154,-0.0182,-0.0216,-0.0269,-0.0309,-0.0342,-0.0356,-0.0351,-0.0336,-0.0314,-0.029,-0.0193,-0.0034,0.0044,0.014,0.0202,0.0359,0.0317,0.0397,0.0505,0.0507,0.0422,0,0,0,0,0,0,-0.0155,-0.0187,-0.0215,-0.0286,-0.0335,-0.0382,-0.0405,-0.039,-0.0376,-0.0341,-0.0255,-0.0192,-0.003,-0.01,0.013,0.0166,0.0225,0.0403,0.0405,0.0504,0.0506,0.0507,0.0421,0,0,0,0,0]}]]